Back to catalog

STARLINK-37296

AliveCommunicationsSSO
NORAD 68672·PAYLOAD·🇺🇸 United States

Launched Apr 11, 2026 from Vandenberg Space Force Base

Loading…

Next Passes (next 24 hours)

TLE

FreshSource: CelesTrak SupGP

Epoch: Sep 14, 2026, 22:59 UTC

1 68672C 26077L   26257.95812500  .00065897  00000+0  20465-2 0  2573
2 68672  97.2845 127.9160 0001722  93.9474 236.5735 15.33391391    10

Track STARLINK-37296 in real time with AllMySat

Download on the App Store